"Pseudo-MPEC" for C12J3R5

Created 2025 Mar 15 20:31:05 UT using Find_Orb

Click here for an explanation of pseudo-MPECs

 
 Astrometry: 
     C12J3R5* C2025 03 07.20082310 55 05.981+63 35 46.86   ~37B2 21.64GVNEOCPV00
     C12J3R5  C2025 03 07.20646110 55 07.770+63 35 09.35   ~37B2 22.75GVNEOCPV00
     C12J3R5  C2025 03 07.21768010 55 11.377+63 33 55.87   ~37B2 21.57GVNEOCPV00

Station data:
(V00) Kitt Peak-Bok  (N31.963125 W111.600190)  US/Arizona.  Observers T. A.
   Pruyne, B. M. Africano, E. J. Christensen, G. A. Farneth, D. C. Fuls, A.
   R. Gibbs, A. D. Grauer, H. Gröller, J. A. Johnson, R. A. Kowalski, S. M.
   Larson, G. J. Leonard, D. Rankin, R. L. Seaman, F. C. Shelly, K. W.
   Wierzchoś. 2.25-m reflector + 4x4K mosaic CCD.

Orbital elements:  C12J3R5
   Perihelion 2025 Jan 30.58942 +/- 27.6 TT = 14:08:46 (JD 2460706.08942)
Epoch 2025 Mar  7.0 TT = JDT 2460741.5   Earth MOID: 0.0750   Ma: 0.0154
M  19.30573014 +/- 25               (J2000 ecliptic)             AutoNEOCP
n   0.54519667 +/- 0.38             Peri.   76.23433 +/- 110
a   1.48400004 +/- 0.69             Node    48.75793 +/- 60
e   0.3311868 +/- 0.253             Incl.    4.95173 +/- 14
P   1.808/660.300d         H 25.07  G  0.15   U 12.1  SR
q 0.99251873 +/- 0.164    Q 1.97548135 +/- 34
From 3 observations 2025 Mar. 7 (24.3 min); mean residual 0".16
Residuals in arcseconds: 
250307 V00  .07+  .19+    250307 V00  .11-  .29-    250307 V00  .04+  .10+    

Ephemerides (geocentric):
Date (UTC) HH   RA             Dec           delta  r     elong  mag " sig PA
---- --------  ------------   ------------  ------ ------ -----  --- --------
2025 03 15 21  11 27 28.630   +47 48 23.17  .12021 1.0816 134.0 22.3  38d  34
2025 03 15 22  11 27 34.135   +47 44 08.98  .12030 1.0817 134.1 22.3  38d  34
2025 03 15 23  11 27 39.618   +47 39 55.03  .12039 1.0819 134.1 22.3  38d  34
2025 03 16 00  11 27 45.080   +47 35 41.31  .12048 1.0821 134.2 22.3  38d  34
2025 03 16 01  11 27 50.519   +47 31 27.83  .12058 1.0822 134.2 22.3  38d  34
2025 03 16 02  11 27 55.937   +47 27 14.57  .12067 1.0824 134.3 22.3  39d  34
2025 03 16 03  11 28 01.333   +47 23 01.55  .12076 1.0825 134.3 22.3  39d  34
2025 03 16 04  11 28 06.707   +47 18 48.77  .12085 1.0827 134.4 22.3  39d  34
2025 03 16 05  11 28 12.060   +47 14 36.22  .12095 1.0828 134.4 22.3  39d  34
2025 03 16 06  11 28 17.392   +47 10 23.90  .12104 1.0830 134.5 22.3  39d  34
2025 03 16 07  11 28 22.703   +47 06 11.82  .12113 1.0831 134.5 22.3  39d  34
2025 03 16 08  11 28 27.993   +47 01 59.97  .12123 1.0833 134.6 22.3  39d  34
2025 03 16 09  11 28 33.262   +46 57 48.36  .12132 1.0834 134.6 22.3  39d  34
2025 03 16 10  11 28 38.510   +46 53 36.99  .12142 1.0836 134.7 22.3  39d  34
2025 03 16 11  11 28 43.738   +46 49 25.86  .12151 1.0838 134.7 22.3  39d  34
2025 03 16 12  11 28 48.945   +46 45 14.96  .12160 1.0839 134.8 22.3  39d  34
2025 03 16 13  11 28 54.132   +46 41 04.30  .12170 1.0841 134.8 22.3  39d  34
2025 03 16 14  11 28 59.298   +46 36 53.87  .12179 1.0842 134.9 22.3  39d  34
2025 03 16 15  11 29 04.444   +46 32 43.69  .12189 1.0844 134.9 22.3  39d  34
2025 03 16 16  11 29 09.571   +46 28 33.74  .12198 1.0845 135.0 22.3  39d  34
2025 03 16 17  11 29 14.677   +46 24 24.04  .12208 1.0847 135.0 22.3  40d  34
2025 03 16 18  11 29 19.764   +46 20 14.57  .12218 1.0848 135.1 22.3  40d  34
2025 03 16 19  11 29 24.831   +46 16 05.35  .12227 1.0850 135.1 22.3  40d  34
2025 03 16 20  11 29 29.878   +46 11 56.36  .12237 1.0851 135.2 22.3  40d  34
2025 03 16 21  11 29 34.906   +46 07 47.61  .12246 1.0853 135.2 22.3  40d  34
2025 03 16 22  11 29 39.915   +46 03 39.11  .12256 1.0855 135.3 22.3  40d  34
2025 03 16 23  11 29 44.905   +45 59 30.85  .12266 1.0856 135.4 22.3  40d  35
2025 03 17 00  11 29 49.875   +45 55 22.83  .12276 1.0858 135.4 22.3  40d  35
2025 03 17 01  11 29 54.826   +45 51 15.05  .12285 1.0859 135.5 22.3  40d  35
2025 03 17 02  11 29 59.759   +45 47 07.52  .12295 1.0861 135.5 22.3  40d  35
2025 03 17 03  11 30 04.672   +45 43 00.22  .12305 1.0862 135.6 22.3  40d  35
2025 03 17 04  11 30 09.568   +45 38 53.17  .12315 1.0864 135.6 22.3  40d  35
2025 03 17 05  11 30 14.444   +45 34 46.37  .12324 1.0866 135.7 22.3  40d  35
2025 03 17 06  11 30 19.302   +45 30 39.81  .12334 1.0867 135.7 22.3  40d  35
2025 03 17 07  11 30 24.142   +45 26 33.49  .12344 1.0869 135.8 22.3  40d  35
2025 03 17 08  11 30 28.963   +45 22 27.42  .12354 1.0870 135.8 22.3  40d  35
2025 03 17 09  11 30 33.766   +45 18 21.59  .12364 1.0872 135.9 22.3  40d  35
2025 03 17 10  11 30 38.552   +45 14 16.00  .12374 1.0873 135.9 22.3  41d  35
2025 03 17 11  11 30 43.319   +45 10 10.67  .12384 1.0875 136.0 22.3  41d  35
2025 03 17 12  11 30 48.069   +45 06 05.58  .12394 1.0877 136.0 22.3  41d  35
2025 03 17 13  11 30 52.800   +45 02 00.73  .12404 1.0878 136.1 22.3  41d  35
2025 03 17 14  11 30 57.515   +44 57 56.13  .12414 1.0880 136.1 22.3  41d  35
2025 03 17 15  11 31 02.211   +44 53 51.78  .12424 1.0881 136.2 22.3  41d  35
2025 03 17 16  11 31 06.890   +44 49 47.67  .12434 1.0883 136.2 22.3  41d  35
2025 03 17 17  11 31 11.552   +44 45 43.82  .12444 1.0884 136.3 22.3  41d  35
2025 03 17 18  11 31 16.197   +44 41 40.21  .12454 1.0886 136.3 22.3  41d  35
2025 03 17 19  11 31 20.825   +44 37 36.84  .12464 1.0888 136.4 22.3  41d  35
2025 03 17 20  11 31 25.435   +44 33 33.73  .12474 1.0889 136.4 22.3  41d  35